TimeADT,TemperatureF,Dew PointF,Humidity,Sea Level PressureIn,VisibilityMPH,Wind Direction,Wind SpeedMPH,Gust SpeedMPH,PrecipitationIn,Events,Conditions,WindDirDegrees,DateUTC
12:00 AM,59.0,53.6,82,29.91,15.0,SSW,10.4,-,N/A,,Overcast,200,2012-10-07 03:00:00
1:00 AM,59.0,53.6,82,29.91,15.0,SSW,9.2,-,N/A,,Overcast,200,2012-10-07 04:00:00
2:00 AM,60.8,51.8,72,29.90,15.0,SSW,12.7,-,N/A,,Overcast,200,2012-10-07 05:00:00
3:00 AM,60,53,71,29.88,15,SSW,12.7,,,,Overcast,200,2012-10-07 06:00:00
3:00 AM,60.8,53.6,77,29.88,15.0,South,11.5,17.3,N/A,,Overcast,190,2012-10-07 06:00:00
4:00 AM,60.8,53.6,77,29.86,15.0,South,13.8,25.3,N/A,,Mostly Cloudy,190,2012-10-07 07:00:00
5:00 AM,60.8,55.4,82,29.87,15.0,SSW,13.8,-,N/A,,Mostly Cloudy,200,2012-10-07 08:00:00
5:37 AM,-9999,-9999,N/A,-9999,15.0,SSW,13.8,19.6,N/A,,Light Drizzle,200,2012-10-07 08:37:00
6:00 AM,60.8,55.4,82,29.86,15.0,South,16.1,21.9,N/A,,Scattered Clouds,190,2012-10-07 09:00:00
6:21 AM,-9999,-9999,N/A,-9999,15.0,SSW,13.8,20.7,N/A,,Mostly Cloudy,200,2012-10-07 09:21:00
7:00 AM,60.8,55.4,82,29.87,15.0,SSW,15.0,-,N/A,,Mostly Cloudy,200,2012-10-07 10:00:00
7:52 AM,-9999,-9999,N/A,-9999,15.0,SSW,12.7,20.7,N/A,Rain,Light Rain Showers,200,2012-10-07 10:52:00
8:00 AM,60.8,57.2,88,29.87,15.0,SSW,12.7,20.7,N/A,Rain,Light Rain Showers,200,2012-10-07 11:00:00
9:00 AM,63,57,76,29.87,15,SSW,13.8,,,Rain,Light Rain Showers,200,2012-10-07 12:00:00
9:00 AM,62.6,57.2,82,29.87,15.0,South,12.7,20.7,N/A,Rain,Light Rain Showers,190,2012-10-07 12:00:00
9:20 AM,-9999,-9999,N/A,-9999,15.0,SSW,12.7,20.7,N/A,,Mostly Cloudy,200,2012-10-07 12:20:00
10:00 AM,64.4,59.0,83,29.88,15.0,SSW,9.2,20.7,N/A,,Mostly Cloudy,210,2012-10-07 13:00:00
11:00 AM,66.2,59.0,78,29.89,15.0,SW,17.3,27.6,N/A,,Mostly Cloudy,230,2012-10-07 14:00:00
11:10 AM,-9999,-9999,N/A,-9999,3.0,WSW,18.4,-,N/A,Rain,Rain Showers,240,2012-10-07 14:10:00
11:33 AM,-9999,-9999,N/A,-9999,15.0,WNW,13.8,-,N/A,,Mostly Cloudy,300,2012-10-07 14:33:00
12:00 PM,59.0,53.6,82,29.94,15.0,WNW,12.7,-,N/A,,Mostly Cloudy,290,2012-10-07 15:00:00
2:00 PM,62.6,51.8,68,29.96,15.0,West,5.8,-,N/A,,Scattered Clouds,280,2012-10-07 17:00:00
3:00 PM,63,50,52,29.96,15,WNW,3.5,,,,Partly Cloudy,300,2012-10-07 18:00:00
3:00 PM,62.6,50.0,63,29.96,15.0,WNW,2.3,-,N/A,,Mostly Cloudy,300,2012-10-07 18:00:00
4:00 PM,62.6,48.2,59,29.98,15.0,WNW,5.8,-,N/A,,Mostly Cloudy,300,2012-10-07 19:00:00
5:00 PM,62.6,46.4,55,30.00,15.0,North,9.2,-,N/A,,Mostly Cloudy,350,2012-10-07 20:00:00
6:00 PM,59.0,46.4,63,30.02,15.0,North,4.6,-,N/A,,Mostly Cloudy,10,2012-10-07 21:00:00
7:00 PM,55.4,48.2,77,30.04,15.0,East,3.5,-,N/A,,Mostly Cloudy,80,2012-10-07 22:00:00
8:00 PM,51.8,46.4,82,30.05,15.0,Calm,Calm,-,N/A,,Mostly Cloudy,0,2012-10-07 23:00:00
9:00 PM,50,47,85,30.07,15,Calm,Calm,,,,Partly Cloudy,,2012-10-08 00:00:00
9:00 PM,50.0,46.4,87,30.07,15.0,Calm,Calm,-,N/A,,Scattered Clouds,0,2012-10-08 00:00:00
10:00 PM,53.6,48.2,82,30.08,15.0,Calm,Calm,-,N/A,,Mostly Cloudy,0,2012-10-08 01:00:00
11:00 PM,51.8,48.2,88,30.09,15.0,Calm,Calm,-,N/A,,Overcast,0,2012-10-08 02:00:00